| time (UTC) | temp F | wind direction | speed knots | gust knots | rain 1hr in | rain 24hr in | rain mn in | humidity % | barometer mb |
| 20260505100032 | 53 | 23 | 7.8 | 12.2 | 0.00 | 0.00 | 0.00 | 56 | 1008.4 |
| 20260505094529 | 53 | 29 | 7.0 | 11.3 | 0.00 | 0.00 | 0.00 | 56 | 1008.4 |
| 20260505093035 | 53 | 19 | 4.3 | 9.6 | 0.00 | 0.00 | 0.00 | 55 | 1008.8 |
| 20260505091527 | 53 | 29 | 4.3 | 7.8 | 0.00 | 0.00 | 0.00 | 54 | 1008.9 |
| 20260505090026 | 53 | 19 | 6.1 | 9.6 | 0.00 | 0.00 | 0.00 | 53 | 1008.4 |
| 20260505084524 | 54 | 6 | 6.1 | 10.4 | 0.00 | 0.00 | 0.00 | 52 | 1008.8 |
| 20260505083025 | 54 | 20 | 5.2 | 10.4 | 0.00 | 0.00 | 0.00 | 51 | 1008.6 |
| 20260505081519 | 54 | 25 | 7.0 | 11.3 | 0.00 | 0.00 | 0.00 | 51 | 1008.0 |
| 20260505080018 | 54 | 36 | 6.1 | 16.5 | 0.00 | 0.00 | 0.00 | 50 | 1007.8 |
| 20260505074514 | 54 | 19 | 7.8 | 12.2 | 0.00 | 0.00 | 0.00 | 49 | 1008.1 |
| 20260505073012 | 55 | 9 | 6.1 | 9.6 | 0.00 | 0.00 | 0.00 | 48 | 1008.1 |
| 20260505071509 | 55 | 29 | 8.7 | 16.5 | 0.00 | 0.00 | 0.00 | 46 | 1007.6 |
| 20260505070005 | 55 | 21 | 8.7 | 14.8 | 0.00 | 0.00 | 0.00 | 44 | 1007.2 |
| 20260505064503 | 56 | 19 | 8.7 | 18.2 | 0.00 | 0.00 | 0.00 | 42 | 1007.2 |
| 20260505063002 | 56 | 339 | 9.6 | 17.4 | 0.00 | 0.00 | 0.00 | 41 | 1007.3 |
| 20260505061638 | 56 | 356 | 10.4 | 19.1 | 0.00 | 0.00 | 0.00 | 41 | 1006.8 |
| 20260505054554 | 56 | 326 | 8.7 | 18.2 | 0.00 | 0.00 | 0.00 | 42 | 1006.6 |
| 20260505053052 | 57 | 4 | 11.3 | 18.2 | 0.00 | 0.00 | 0.00 | 43 | 1006.2 |
| 20260505051609 | 57 | 4 | 15.6 | 22.6 | 0.00 | 0.00 | 0.00 | 43 | 1006.2 |
| 20260505041548 | 59 | 11 | 10.4 | 20.0 | 0.00 | 0.00 | 0.00 | 43 | 1005.8 |
| 20260505040040 | 60 | 6 | 13.9 | 20.0 | 0.00 | 0.00 | 0.00 | 41 | 1005.3 |
| 20260505034539 | 61 | 13 | 17.4 | 21.7 | 0.00 | 0.00 | 0.00 | 39 | 1005.5 |
| 20260505033038 | 63 | 17 | 13.9 | 21.7 | 0.00 | 0.00 | 0.00 | 37 | 1005.2 |
| 20260505031536 | 65 | 12 | 13.9 | 20.0 | 0.00 | 0.00 | 0.00 | 36 | 1004.8 |
| 20260505030036 | 66 | 346 | 10.4 | 17.4 | 0.00 | 0.00 | 0.00 | 36 | 1004.4 |
| 20260505024537 | 67 | 351 | 10.4 | 15.6 | 0.00 | 0.00 | 0.00 | 35 | 1003.7 |
| 20260505023035 | 68 | 19 | 12.2 | 20.9 | 0.00 | 0.00 | 0.00 | 34 | 1002.8 |
| 20260505021535 | 69 | 6 | 13.0 | 25.2 | 0.00 | 0.00 | 0.00 | 33 | 1002.3 |
| 20260505020035 | 70 | 356 | 11.3 | 18.2 | 0.00 | 0.00 | 0.00 | 32 | 1002.0 |
| 20260505014533 | 71 | 20 | 12.2 | 19.1 | 0.00 | 0.00 | 0.00 | 32 | 1001.6 |
| 20260505013033 | 72 | 351 | 13.0 | 20.0 | 0.00 | 0.00 | 0.00 | 32 | 1001.0 |
| 20260505011534 | 74 | 360 | 12.2 | 19.1 | 0.00 | 0.00 | 0.00 | 31 | 1000.6 |
| 20260505010036 | 75 | 10 | 10.4 | 15.6 | 0.00 | 0.00 | 0.00 | 32 | 1000.3 |
| 20260505004531 | 76 | 342 | 11.3 | 17.4 | 0.00 | 0.00 | 0.00 | 33 | 1000.1 |
| 20260505003031 | 77 | 356 | 13.0 | 18.2 | 0.00 | 0.00 | 0.00 | 33 | 999.9 |
| 20260505001532 | 79 | 305 | 10.4 | 15.6 | 0.00 | 0.00 | 0.00 | 32 | 999.7 |
| 20260505000030 | 80 | 332 | 11.3 | 17.4 | 0.00 | 0.00 | 0.00 | 29 | 999.5 |
| 20260504234533 | 82 | 291 | 1.7 | 5.2 | 0.00 | 0.00 | 0.00 | 25 | 999.3 |
| 20260504233029 | 83 | 239 | 3.5 | 7.8 | 0.00 | 0.00 | 0.00 | 20 | 999.3 |
| 20260504231528 | 84 | 285 | 4.3 | 8.7 | 0.00 | 0.00 | 0.00 | 20 | 999.2 |
| 20260504230028 | 84 | 253 | 2.6 | 7.8 | 0.00 | 0.00 | 0.00 | 24 | 999.1 |
| 20260504224527 | 84 | 286 | 3.5 | 7.8 | 0.00 | 0.00 | 0.00 | 21 | 999.1 |
| 20260504223026 | 84 | 329 | 2.6 | 7.8 | 0.00 | 0.00 | 0.00 | 27 | 999.1 |
| 20260504221525 | 83 | 258 | 1.7 | 7.0 | 0.00 | 0.00 | 0.00 | 23 | 999.1 |
| 20260504220024 | 83 | 288 | 4.3 | 13.0 | 0.00 | 0.00 | 0.00 | 21 | 999.1 |
| 20260504214523 | 84 | 243 | 0.9 | 5.2 | 0.00 | 0.00 | 0.00 | 26 | 999.2 |
| 20260504213022 | 84 | 295 | 3.5 | 9.6 | 0.00 | 0.00 | 0.00 | 25 | 999.4 |
| 20260504211520 | 83 | 241 | 6.1 | 9.6 | 0.00 | 0.00 | 0.00 | 19 | 999.4 |
| 20260504210019 | 83 | 286 | 2.6 | 11.3 | 0.00 | 0.00 | 0.00 | 23 | 999.4 |
| 20260504204517 | 84 | 281 | 5.2 | 12.2 | 0.00 | 0.00 | 0.00 | 20 | 999.6 |
| 20260504203022 | 82 | 273 | 5.2 | 13.9 | 0.00 | 0.00 | 0.00 | 23 | 999.7 |
| 20260504201513 | 82 | 318 | 7.0 | 12.2 | 0.00 | 0.00 | 0.00 | 25 | 999.8 |
| 20260504200012 | 82 | 332 | 7.8 | 14.8 | 0.00 | 0.00 | 0.00 | 26 | 999.9 |
| 20260504194512 | 83 | 312 | 3.5 | 9.6 | 0.00 | 0.00 | 0.00 | 24 | 999.9 |
| 20260504193015 | 83 | 301 | 7.0 | 10.4 | 0.00 | 0.00 | 0.00 | 25 | 999.9 |
| 20260504191521 | 83 | 299 | 6.1 | 15.6 | 0.00 | 0.00 | 0.00 | 25 | 999.9 |
| 20260504190007 | 82 | 351 | 9.6 | 16.5 | 0.00 | 0.00 | 0.00 | 27 | 999.8 |
| 20260504184506 | 82 | 324 | 7.0 | 13.9 | 0.00 | 0.00 | 0.00 | 34 | 999.9 |
| 20260504183004 | 81 | 291 | 6.1 | 13.9 | 0.00 | 0.00 | 0.00 | 34 | 1000.0 |
| 20260504181504 | 82 | 261 | 2.6 | 8.7 | 0.00 | 0.00 | 0.00 | 34 | 1000.1 |
| 20260504180100 | 81 | 335 | 5.2 | 10.4 | 0.00 | 0.00 | 0.00 | 35 | 1000.0 |
| 20260504174606 | 80 | 351 | 6.1 | 11.3 | 0.00 | 0.00 | 0.00 | 33 | 1000.1 |
| 20260504173058 | 79 | 335 | 5.2 | 10.4 | 0.00 | 0.00 | 0.00 | 43 | 1000.2 |
| 20260504171553 | 79 | 335 | 6.1 | 10.4 | 0.00 | 0.00 | 0.00 | 40 | 1000.3 |